Location: Ferchesar
(52.6477°N, 12.4298°E)
Time: 08:27:34
(UTC+01:00)

Explorer 7 - All Passes

Search period start: 07 December 2021 00:00
Search period end: 17 December 2021 00:00
Orbit: 483 x 675 km, 50.3° (Epoch: 06 December)

Date Brightness Start Highest point End Pass type
(mag) Time Alt. Az. Time Alt. Az. Time Alt. Az.
07 Dec - 04:48:31 10° SSW 04:52:07 25° SSE 04:55:33 10° E visible
07 Dec - 06:27:55 10° WSW 06:32:08 54° SSE 06:36:05 10° E visible
07 Dec - 08:08:17 10° W 08:12:23 59° S 08:16:15 10° ESE daylight
07 Dec - 09:48:55 10° W 09:52:24 29° SSW 09:55:44 10° SSE daylight
08 Dec - 03:16:00 10° SE 03:16:22 10° SE 03:16:44 10° SE visible
08 Dec - 04:52:01 10° SW 04:55:59 32° SSE 04:59:43 10° E visible
08 Dec - 06:31:50 10° WSW 06:36:06 61° S 06:40:05 10° E visible
08 Dec - 08:12:18 10° W 08:16:20 53° SSW 08:20:10 10° ESE daylight
08 Dec - 09:53:07 10° W 09:56:13 22° SSW 09:59:13 10° SSE daylight
09 Dec - 03:17:33 10° S 03:20:05 15° SE 03:22:33 10° ESE visible
09 Dec - 04:55:42 10° SW 04:59:51 40° SSE 05:03:47 10° E visible
09 Dec - 06:35:48 10° W 06:40:04 64° S 06:44:04 10° E visible
09 Dec - 08:16:18 10° W 08:20:16 45° SSW 08:24:01 10° SE daylight
09 Dec - 09:57:31 10° WSW 09:59:59 16° SW 10:02:23 10° S daylight
10 Dec - 03:20:30 10° SSW 03:23:50 20° SE 03:27:04 10° E visible
10 Dec - 04:59:28 10° WSW 05:03:46 49° SSE 05:07:49 10° E visible
10 Dec - 06:39:46 10° W 06:44:02 63° S 06:48:01 10° ESE visible
10 Dec - 08:20:21 10° W 08:24:09 36° SSW 08:27:46 10° SE daylight
10 Dec - 10:02:33 10° WSW 10:03:40 11° SW 10:04:48 10° SSW daylight
11 Dec - 03:23:49 10° SSW 03:27:39 27° SSE 03:31:19 10° E visible
11 Dec - 05:03:20 10° WSW 05:07:42 57° S 05:11:48 10° E visible
11 Dec - 06:43:45 10° W 06:48:00 59° S 06:51:58 10° ESE visible
11 Dec - 08:24:26 10° W 08:28:00 28° SSW 08:31:23 10° SSE daylight
12 Dec - 01:50:16 10° SSE 01:51:51 12° SE 01:53:24 10° ESE night (unlit)
12 Dec - 03:27:21 10° SW 03:31:29 35° SSE 03:35:26 10° E visible
12 Dec - 05:07:16 10° WSW 05:11:39 62° S 05:15:47 10° E visible
12 Dec - 06:47:44 10° W 06:51:56 52° SSW 06:55:51 10° ESE visible
12 Dec - 08:28:38 10° W 08:31:47 21° SW 08:34:49 10° SSE daylight
13 Dec - 01:52:38 10° S 01:55:33 17° SE 01:58:23 10° ESE night (unlit)
13 Dec - 03:31:02 10° SW 03:35:22 43° SSE 03:39:29 10° E visible
13 Dec - 05:11:12 10° W 05:15:37 65° S 05:19:45 10° E visible
13 Dec - 06:51:44 10° W 06:55:50 44° SSW 06:59:41 10° SE visible
13 Dec - 08:33:03 10° WSW 08:35:31 16° SW 08:37:55 10° S daylight
14 Dec - 01:55:42 10° SSW 01:59:19 22° SE 02:02:48 10° E night (unlit)
14 Dec - 03:34:50 10° WSW 03:39:17 52° SSE 03:43:28 10° E visible
14 Dec - 05:15:10 10° W 05:19:35 64° S 05:23:42 10° ESE visible
14 Dec - 06:55:47 10° W 06:59:42 35° SSW 07:03:24 10° SE visible
14 Dec - 08:38:13 10° WSW 08:39:11 11° SW 08:40:10 10° SSW daylight
15 Dec - 01:59:04 10° SSW 02:03:07 29° SSE 02:06:59 10° E night (unlit)
15 Dec - 03:38:42 10° WSW 03:43:12 59° S 03:47:27 10° E visible
15 Dec - 05:19:08 10° W 05:23:31 59° S 05:27:37 10° ESE visible
15 Dec - 06:59:52 10° W 07:03:31 28° SSW 07:06:59 10° SSE visible
16 Dec - 00:25:06 10° SSE 00:27:15 13° SE 00:29:23 10° ESE night (unlit)
16 Dec - 02:02:37 10° SW 02:06:57 37° SSE 02:11:04 10° E night (unlit)
16 Dec - 03:42:36 10° WSW 03:47:09 64° S 03:51:25 10° E visible
16 Dec - 05:23:07 10° W 05:27:27 52° SSW 05:31:29 10° ESE visible
16 Dec - 07:04:04 10° W 07:07:17 21° SW 07:10:21 10° SSE visible
